Location: Buchloe
(48.0372°N, 10.7255°E)
Time: 10:08:03
(UTC+00:00)

Daily predictions for brighter satellites

Satellite Brightness Start Highest point End
(mag) Time Altitude Azimuth Time Altitude Azimuth Time Altitude Azimuth
In-Cosmos 22 Rocket 4.2 18:38:38 10° N 18:44:06 74° ENE 18:49:39 10° SSE
Cosmos 1025 Rocket 3.8 18:40:26 10° NNW 18:44:44 57° W 18:49:01 10° S
PAYLOAD B 4.4 18:39:20 10° SSE 18:44:53 82° WSW 18:50:31 10° NNW
Cosmos 2181 Rocket 4.0 18:39:52 10° S 18:46:03 81° E 18:52:23 10° N
Okean 2 Rocket 4.4 18:43:30 10° SE 18:46:56 22° E 18:50:24 10° NE
Cosmos 1992 Rocket 4.0 18:43:32 10° SSW 18:48:43 73° ESE 18:53:57 10° NNE
MOS 1-B 4.4 18:43:04 10° SSE 18:48:50 72° ENE 18:54:37 10° NNW
CZ-4C R/B 4.0 18:43:25 10° NW 18:49:10 31° NNE 18:56:05 10° E
SPOT 5 4.3 18:47:37 10° ESE 18:51:51 25° ENE 18:56:02 10° N
Cosmos 2297 Rocket 3.4 18:48:53 10° NNW 18:53:46 29° NE 18:58:37 10° ESE
Cosmos 2369 Rocket 3.6 18:51:57 10° SW 18:57:21 44° NW 19:02:46 10° NNE
Cosmos 1503 Rocket 4.5 18:52:47 10° NNW 18:57:59 47° ENE 19:03:08 10° SE
Meteor 1-11 4.3 18:54:54 10° N 19:00:36 85° E 19:06:20 10° SSE
BlueWalker 3 2.9 18:57:50 10° SSW 19:01:05 27° SE 19:04:22 10° ENE
Terra 3.6 19:01:37 10° E 19:04:36 17° ENE 19:07:35 10° NNE
ATLAS 5 CENTAUR R/B 1.0 19:02:05 10° SW 19:05:25 84° NW 19:09:10 10° NE
PSLV R/B 3.6 19:03:58 10° SSE 19:07:40 85° ENE 19:11:29 10° NNW
Cosmos 2098 Rocket 3.0 19:03:10 10° S 19:07:57 89° ESE 19:11:51 10° N
CARTOSAT-1 3.5 19:04:07 10° SSE 19:08:23 76° ENE 19:12:39 10° N
Cosmos 1455 4.2 19:07:09 10° SW 19:10:20 31° WNW 19:13:33 10° N
Sich 1 Rocket 4.2 19:06:19 10° SSE 19:10:21 36° E 19:14:26 10° NNE
Okean 1 Rocket 4.3 19:06:57 10° SE 19:10:27 23° E 19:14:00 10° NE
Okean-O 2.9 19:11:10 10° SE 19:15:25 51° ENE 19:19:43 10° N
Cosmos 1932 4.5 19:09:36 10° NW 19:15:53 82° NE 19:21:31 13° SE
Cosmos 1975 Rocket 4.0 19:11:46 10° NNW 19:15:57 49° W 19:20:06 10° SSW
CZ-4B R/B 3.8 19:12:00 10° S 19:17:34 61° WSW 19:23:05 10° NNW
Ariane Rocket 4.4 19:16:22 13° ESE 19:19:31 22° ENE 19:23:22 10° N
Cosmos 2263 Rocket 4.3 19:16:58 10° N 19:19:49 14° NNE 19:22:39 10° ENE
CZ-4C R/B 3.4 19:18:23 10° NNE 19:21:37 37° E 19:24:45 10° S
Nadezhda 3 Rocket 3.9 19:16:08 10° S 19:22:14 72° E 19:28:25 10° NNE
Cosmos 1821 Rocket 4.2 19:17:21 10° NNW 19:23:31 72° W 19:29:34 10° S
USA 186 3.3 19:21:23 10° SSW 19:24:11 33° W 19:26:58 10° NNW
SL-27 R/B 3.8 19:21:48 10° NW 19:24:24 30° WSW 19:26:57 10° SSW
Genesis I 3.2 19:21:00 10° NNW 19:24:35 57° NE 19:26:55 20° ESE
Cosmos 44 4.3 19:20:29 10° S 19:25:00 28° ESE 19:29:31 10° ENE
BREEZE-M R/B 1.7 19:23:43 10° WNW 19:26:19 76° NNE 19:27:39 23° E
USA 267 3.6 19:19:53 10° NE 19:26:26 72° NNW 19:32:56 10° WSW
Okean O Rocket 2.1 19:25:56 10° S 19:30:14 60° W 19:34:35 10° NNW
Cosmos 1486 Rocket 4.5 19:30:20 10° NNW 19:35:28 59° WSW 19:40:33 10° S
CZ-4 R/B 3.8 19:32:30 10° SW 19:35:32 21° W 19:38:32 10° NW
Cosmos 1536 Rocket 3.5 19:37:40 10° N 19:42:07 86° E 19:45:49 15° S
SJ 16-02 4.3 19:41:21 10° WNW 19:43:04 12° W 19:44:46 10° WSW
Resurs 01 Rocket 2.8 19:40:53 10° S 19:45:04 42° W 19:49:18 10° NNW
IRS-1C Rocket 4.1 19:42:38 18° SSE 19:46:31 67° ENE 19:51:46 10° N
MOS 1 4.3 19:43:34 14° SSE 19:48:38 88° ENE 19:54:23 10° NNW
CENTAUR R/B 4.0 19:43:11 10° NW 19:50:28 40° NNE 19:57:39 14° E
Celestis-02/Orion 38 4.5 19:48:37 22° SE 19:51:53 78° ENE 19:57:00 10° NNW
NOSS 3-1 (A) 3.2 19:46:58 10° SW 19:51:58 79° NW 19:58:03 10° NE
ERS-1 Rocket 3.3 19:51:26 25° SE 19:54:08 51° ENE 19:58:59 10° N
SPOT 3 Rocket 4.2 19:55:09 25° ESE 19:57:34 40° ENE 20:02:24 10° N
Tiangong 0.0 19:56:18 10° SW 19:57:17 15° SSW 19:57:17 15° SSW
USA 229 DEB 3.6 19:54:57 10° SSW 20:00:49 52° ESE 20:07:17 10° NE
USA 229 3.6 19:55:03 10° SSW 20:00:55 52° ESE 20:07:23 10° NE
Cosmos 1934 Rocket 4.0 19:54:50 10° N 20:01:01 85° W 20:06:25 14° S
Cosmos 1339 Rocket 4.4 19:56:23 10° S 20:02:33 88° E 20:08:40 10° N
Cosmos 2151 Rocket 4.0 19:58:11 10° SSW 20:02:33 64° WNW 20:06:58 10° N
USA 234 4.0 19:58:35 17° SSE 20:03:20 43° SW 20:09:31 10° WNW
USA 281 3.6 19:59:01 13° S 20:04:48 61° WSW 20:11:19 10° NNW
ATLAS CENTAUR R/B 2.5 20:05:31 10° NNW 20:08:49 28° NE 20:09:58 24° ENE
Cosmos 2227 Rocket 2.6 20:04:17 10° NNW 20:09:49 51° NE 20:12:21 30° ESE
Cosmos 1980 Rocket 3.8 20:13:32 16° E 20:13:32 16° E 20:15:49 10° ENE
Iridium 2 4.0 20:10:24 10° NNW 20:13:15 44° W 20:14:16 30° SW
Cosmos 1892 Rocket 3.6 20:12:49 10° N 20:17:06 58° ENE 20:18:10 44° SE
SL-4 R/B 1.7 20:13:44 10° WNW 20:17:19 70° NNE 20:17:57 53° ENE
Cosmos 371 Rocket 4.3 20:13:28 10° NW 20:17:57 40° WSW 20:21:07 17° SSW
Landsat 4 3.6 20:17:01 44° S 20:17:59 73° WSW 20:21:31 10° NNW
MetOp-B 4.4 20:15:38 21° S 20:19:17 67° WSW 20:24:38 10° NNW
Cosmos 1697 Rocket 3.1 20:18:57 34° SE 20:20:34 41° ESE 20:25:52 10° NE
Cosmos 2360 4.2 20:17:18 16° S 20:21:41 57° ESE 20:27:15 10° NE
Okean 2 Rocket 4.3 20:20:25 10° SSW 20:24:41 42° WNW 20:28:59 10° N
COSMOS 2455 2.8 20:19:17 10° NW 20:25:21 90° ENE 20:27:59 36° SSE
ATLAS 3B R/B 3.6 20:19:03 10° WSW 20:26:08 57° NW 20:33:42 10° NE
SPOT 5 3.6 20:26:04 21° S 20:29:31 56° W 20:34:41 10° NNW
MetOp-A 4.0 20:30:40 38° ENE 20:30:40 38° ENE 20:34:14 10° N
NOSS 8 (H) 4.3 20:28:13 10° NW 20:31:21 82° NE 20:31:30 79° E
NOSS 8 (E) 4.4 20:28:40 10° NW 20:31:49 72° SW 20:31:59 70° SSW
Cosmos 405 Rocket 2.5 20:33:26 72° ESE 20:33:27 72° E 20:37:11 10° NNE
Cosmos 1898 Rocket 3.9 20:29:42 10° NNW 20:34:48 48° ENE 20:36:04 39° E
Spot 2 Rocket 3.4 20:36:25 42° SSE 20:38:11 87° WSW 20:43:16 10° NNW
Cosmos 2297 Rocket 2.5 20:32:38 10° NW 20:38:11 59° WSW 20:40:35 33° S
CZ-4C R/B 3.0 20:31:34 10° NW 20:38:38 79° NE 20:42:37 35° SE
BlueWalker 3 2.1 20:35:17 10° WSW 20:39:05 70° NNW 20:40:37 34° NE
USA 81 4.2 20:38:45 46° SE 20:39:44 54° E 20:44:53 10° NNE
ARIANE 5 R/B 4.3 20:39:49 20° ENE 20:40:07 20° ENE 20:43:23 10° NNE
Terra 1.9 20:40:08 43° S 20:41:39 74° WSW 20:46:24 10° NNW
Cosmos 1656 4.1 20:38:20 10° SW 20:43:50 60° WNW 20:49:17 10° NNE
Cosmos 1455 Rocket 3.0 20:46:46 57° SSW 20:47:38 88° W 20:52:03 10° N
Okean 1 Rocket 4.4 20:44:00 11° SW 20:48:03 38° WNW 20:52:16 10° N
Spot 1 4.0 20:43:57 10° NNE 20:48:36 73° ESE 20:49:02 67° SSE
USA 245 4.4 20:46:54 31° SSW 20:49:02 52° WSW 20:53:22 10° NNW
ATLAS 5 CENTAUR R/B 4.2 20:47:41 10° WNW 20:50:01 16° NNW 20:52:36 10° NNE
Cosmos 332 Rocket 4.3 20:45:49 10° NNW 20:50:33 53° WSW 20:51:53 40° SSW
Cosmos 1459 Rocket 4.2 20:44:49 10° N 20:50:43 51° ENE 20:52:04 43° ESE
Cosmos 2219 3.3 20:47:38 10° NNW 20:53:16 62° ENE 20:54:33 49° ESE
Ariane Rocket 3.3 20:56:30 40° SSW 20:58:04 59° W 21:03:04 10° NNW
Cosmos 1437 Rocket 3.2 20:56:22 10° NNW 21:00:12 53° W 21:00:22 53° WSW
Cosmos 1763 Rocket 3.6 20:57:45 26° SW 21:00:39 72° WNW 21:05:49 10° NNE
Cosmos 2263 Rocket 2.5 20:59:37 10° NNW 21:05:07 53° NE 21:06:06 47° E
Cosmos 44 4.0 21:00:36 10° SW 21:05:56 59° NW 21:11:12 10° NNE
USA 267 4.3 21:02:51 10° ENE 21:08:57 43° N 21:15:03 10° WNW
ARGOS Delta rocket 4.3 21:08:36 50° SSW 21:09:56 69° W 21:15:24 10° NNW
Cosmos 2082 3.9 21:06:02 10° NNW 21:11:38 58° ENE 21:12:29 52° E
Cosmos 2173 Rocket 3.9 21:09:12 10° N 21:15:38 81° E 21:17:01 57° SSE
NOSS 3-2 (A) 4.2 21:09:28 10° NW 21:16:37 63° NE 21:19:58 38° ESE
Aureole 1 Rocket 4.3 21:14:22 10° NW 21:15:56 25° WNW 21:15:56 25° WNW
Meteor 2-3 Rocket 3.7 21:13:26 10° N 21:19:07 67° ENE 21:19:41 63° ESE
Cosmos 540 Rocket 3.7 21:18:45 42° SW 21:20:24 67° WNW 21:25:31 10° NNE
Cosmos 1606 4.4 21:23:39 25° NNE 21:23:39 25° NNE 21:25:20 10° NNE
MOS 1 Rocket 3.6 21:25:22 51° W 21:25:22 51° W 21:29:34 10° NNW
Cosmos 2058 3.7 21:22:57 10° NNW 21:26:27 45° WNW 21:26:27 45° WNW
Meteor 2-15 4.3 21:22:59 10° N 21:29:09 81° E 21:29:58 68° SSE
Cosmos 1626 Rocket 3.8 21:25:08 10° NNW 21:29:06 67° NW 21:29:06 67° NW
Cosmos 372 Rocket 3.9 21:26:46 10° NNW 21:32:01 75° WSW 21:32:09 75° SW
Meteor 2-15 Rocket 4.4 21:26:19 10° N 21:32:27 66° ENE 21:33:02 62° ESE
Cosmos 468 Rocket 4.5 21:31:31 37° WSW 21:33:18 56° WNW 21:38:28 10° NNE
Cosmos 1864 Rocket 4.3 21:28:51 10° N 21:35:03 75° E 21:35:41 68° SE
Cosmos 1802 Rocket 3.9 21:31:48 10° N 21:38:07 87° ENE 21:38:59 69° SSE
SL-16 R/B 4.1 21:41:08 17° ENE 21:41:08 17° ENE 21:43:00 10° NE
CENTAUR R/B 3.2 21:33:49 10° NW 21:42:06 84° SW 21:44:48 52° SSE
Cosmos 841 Rocket 3.5 21:43:35 76° NNE 21:43:35 76° NNE 21:48:19 10° NNE
Cosmos 2016 Rocket 3.8 21:39:15 10° N 21:45:24 83° E 21:45:55 75° SE
ATLAS CENTAUR R/B 3.1 21:43:07 10° NW 21:45:04 25° WNW 21:45:04 25° WNW
Cosmos 1544 Rocket 4.3 21:49:27 49° NW 21:49:27 49° NW 21:53:09 10° N
Cosmos 1844 Rocket 4.0 21:44:33 10° NNW 21:49:27 30° NE 21:50:30 28° ENE
H-2A R/B 3.9 21:54:16 32° N 21:54:16 32° N 21:56:26 10° N
Cosmos 2100 Rocket 4.4 21:46:50 10° NNW 21:53:00 54° W 21:54:16 47° SW
Cosmos 2227 Rocket 3.4 21:48:47 10° NW 21:53:36 29° WSW 21:54:10 29° WSW
Cosmos 1980 Rocket 2.1 21:55:14 78° W 21:55:28 80° WNW 22:01:10 10° NNE
Cosmos 967 Rocket 4.3 21:53:47 10° NW 22:00:18 88° ENE 22:00:44 79° SE
Cosmos 1937 Rocket 4.2 21:59:02 10° NNW 22:03:46 45° W 22:03:46 45° W
Cosmos 1697 Rocket 4.0 22:00:32 16° WSW 22:04:35 38° NW 22:09:52 10° NNE
Cosmos 2123 Rocket 4.0 22:05:46 64° SW 22:06:35 73° W 22:12:56 10° N
Meteor 1-27 4.2 22:10:41 76° NNE 22:10:41 76° NNE 22:15:49 10° NNE
CZ-2C R/B 4.3 22:06:48 10° N 22:10:47 58° NNW 22:10:47 58° NNW
Cosmos 2228 4.4 22:14:50 35° NW 22:14:50 35° NW 22:17:54 10° N
ARIANE 5 R/B 3.7 22:17:17 42° NW 22:17:17 42° NW 22:20:34 10° NNW
CZ-4C R/B 4.0 22:20:27 10° NW 22:26:56 32° WSW 22:27:43 32° SW
Cosmos 2369 4.0 22:27:49 58° WNW 22:28:10 59° WNW 22:33:47 10° NNE
Cosmos 2227 4.3 22:22:29 10° NNW 22:27:45 75° N 22:27:45 75° N
Lacrosse 4 Rocket 3.6 22:33:41 20° NNE 22:33:41 20° NNE 22:34:59 10° NNE
NOSS 3-2 (C) 4.0 22:25:28 10° NW 22:32:51 83° NE 22:34:31 61° SE
H-2A R/B 4.2 22:29:18 10° NNE 22:30:48 19° NE 22:30:48 19° NE
ALOS 2 3.8 22:35:57 40° N 22:35:57 40° N 22:38:49 10° N
Cosmos 2233 Rocket 4.1 22:29:13 10° NNW 22:35:19 64° W 22:35:19 64° W
Cosmos 2061 Rocket 4.4 22:35:31 10° NNW 22:41:45 53° W 22:42:00 53° W
Cosmos 1447 Rocket 4.4 22:42:34 84° N 22:42:34 84° N 22:48:32 10° N
Cosmos 1464 Rocket 4.3 22:38:38 10° N 22:44:54 55° ENE 22:44:59 54° E
Cosmos 2263 Rocket 3.6 22:44:03 10° NW 22:47:47 26° W 22:47:47 26° W
Cosmos 2360 Rocket 3.5 22:51:06 29° ENE 22:51:06 29° ENE 22:54:27 10° NE
USA 267 4.2 22:45:04 10° E 22:51:13 45° NNE 22:57:21 10° WNW
SL-19 R/B 4.4 22:46:23 10° NNE 22:51:47 75° NW 22:51:47 75° NW
Cosmos 909 Rocket 4.4 22:55:34 72° S 22:56:20 79° ESE 23:05:32 10° NE
Cosmos 1891 Rocket 4.4 22:53:20 10° N 22:59:17 83° NNW 22:59:17 83° NNW
Cosmos 1513 Rocket 4.4 22:53:51 10° N 22:59:38 80° NNE 22:59:38 80° NNE
Cosmos 2333 Rocket 3.4 23:03:47 32° ENE 23:03:47 32° ENE 23:07:21 10° NE
Cosmos 2322 Rocket 2.9 23:03:59 45° ENE 23:03:59 45° ENE 23:08:03 10° NE
Lacrosse 5 3.7 23:05:57 23° ENE 23:05:57 23° ENE 23:07:53 10° ENE
Cosmos 2219 Rocket 3.9 23:05:42 22° ENE 23:05:42 22° ENE 23:08:31 10° NE
Cosmos 2034 Rocket 4.3 23:00:58 10° N 23:07:00 54° ENE 23:07:00 54° ENE
Cosmos 1809 Rocket 4.5 23:21:05 76° NW 23:21:05 76° NW 23:27:02 10° N
SL-16 R/B 2.5 23:22:57 64° NNW 23:22:57 64° NNW 23:28:05 10° NNE
Cosmos 1844 4.1 23:18:48 10° NNW 23:23:28 58° NW 23:23:28 58° NW
CENTAUR R/B 4.4 23:25:27 10° WNW 23:31:56 26° WSW 23:31:56 26° WSW
USA 238 DEB 3.8 23:25:14 10° NW 23:32:36 79° SW 23:32:58 77° SSW
USA 238 3.8 23:25:20 10° NW 23:32:42 79° SW 23:33:06 77° SSW
Cosmos 1844 Rocket 3.5 23:28:12 10° NW 23:32:08 42° WNW 23:32:08 42° WNW
Cosmos 1980 Rocket 4.4 23:36:55 11° W 23:40:25 19° NW 23:44:22 10° N
Meteor 2-2 Rocket 4.4 23:48:58 75° NE 23:48:58 75° NE 23:54:27 10° NNE
Timation 2 Rocket 4.2 23:42:31 10° NNW 23:48:19 61° WNW 23:48:19 61° WNW
Cosmos 1816 Rocket 4.4 23:51:35 77° NW 23:51:35 77° NW 23:57:30 10° N
